RH
41 42 42 40 43 66 74 75 70 70 68 70 67 60 57 58 65 67 69 73 72 72 71 68 63 60 56 53 52 56 57 54 50 48 44 41 38 37
43 46 49 54 61 69 77 84 82 76 75 71 73 68 62 59 60 68 72 73 73 76 78 76 69 62 56 54 53 54 53 50 47 44 42 40 39 37
65 71 75 78 77 80 86 91 90 86 79 73 69 74 71 66 60 58 63 72 75 74 74 77 78 76 69 59 52 49 48 48 40 33 32 33 31 28
99 98 100 97 99 99 97 96 96 92 87 83 84 76 71 68 66 67 61 60 65 72 72 70 69 68 70 72 68 57 49 46 41 34 30 28 27 24
23 29 37 64 90 94 100 85 81 85 81 77 92 94 87 79 79 68 69 62 52 33 33 52 64 62 60 62 63 64 64 56 46 43 35 35 34 30
4 4 5 12 17 19 69 74 53 57 83 82 76 84 96 92 95 88 78 64 54 54 50 28 14 15 26 48 51 52 54 58 58 53 45 40 36 33
7 6 5 5 4 4 5 6 13 21 30 62 69 100 100 90 100 100 89 84 64 29 31 38 28 20 11 6 5 17 41 44 48 50 50 47 40 35
9 9 10 9 9 8 6 6 5 7 29 52 69 95 100 83 100 100 100 97 86 67 43 44 26 15 10 4 3 3 3 6 24 36 41 44 43 40
11 10 10 10 10 10 10 10 14 34 42 58 43 76 100 100 100 100 99 95 87 79 66 56 29 7 5 4 3 3 2 2 2 3 14 31 38 40
14 14 13 12 12 13 18 22 19 26 27 50 55 86 100 100 100 100 95 85 61 55 53 17 8 7 6 5 4 3 3 2 2 2 2 3 13 28
16 19 20 21 21 21 44 65 69 100 76 32 45 62 41 41 49 46 27 13 10 10 11 11 12 13 11 8 6 5 4 4 3 3 2 2 2 3
22 27 29 29 30 26 24 23 28 91 97 73 100 100 73 93 81 43 25 29 29 28 29 23 22 23 23 19 11 8 6 5 4 3 3 3 2 2
30 38 40 42 42 38 36 33 42 75 83 100 100 100 88 74 66 74 89 82 78 70 73 73 56 38 29 28 20 16 12 9 6 4 3 3 3 2
41 48 48 53 49 54 40 37 37 54 82 79 93 99 100 100 100 100 100 95 86 76 63 52 44 36 32 30 28 27 20 16 12 8 5 4 3 3
69 78 78 75 50 40 38 54 94 100 100 91 100 100 100 100 100 98 86 70 62 59 51 48 43 37 33 33 31 27 23 19 15 12 9 6 4 3
90 93 95 85 66 51 56 98 100 100 99 100 100 100 100 100 98 89 88 86 86 74 50 46 35 31 31 30 28 26 23 21 17 14 11 8 6 5
100 100 100 89 81 68 72 91 97 100 100 100 100 100 100 100 100 96 68 49 43 41 42 42 43 40 37 34 31 28 27 26 23 21 18 14 9 7
95 93 98 100 100 100 100 100 100 100 100 100 100 100 98 86 60 46 39 45 48 48 46 42 39 36 33 32 30 29 29 31 33 30 22 16 12 9
100 100 100 100 100 100 100 100 100 100 100 100 98 96 78 62 50 42 50 51 48 46 42 38 33 25 20 18 18 18 21 23 26 34 32 20 16 13
98 96 100 100 100 100 100 100 100 100 100 100 90 76 58 52 52 55 52 47 44 36 26 19 18 19 19 18 18 17 15 14 16 22 31 32 24 19
100 100 100 100 100 100 100 100 100 100 100 98 86 68 57 57 55 47 43 33 23 21 24 23 23 24 25 25 23 23 22 17 14 14 21 30 33 27
100 100 100 100 100 99 94 100 100 100 100 100 82 66 58 52 41 34 25 24 26 29 29 29 29 29 30 30 30 29 28 27 23 15 13 17 28 33
100 100 100 100 100 100 100 100 100 100 100 100 95 72 52 36 28 24 26 33 33 31 31 33 31 32 32 37 39 41 38 37 31 26 23 14 16 28
Wind_Speed
47 47 47 47 46 45 45 46 46 45 42 40 38 37 37 37 37 37 38 39 38 37 38 39 39 39 38 38 38 38 38 37 36 36 35 34 33 33
52 52 52 51 50 50 50 50 50 49 46 44 43 40 39 38 38 38 38 38 39 40 39 39 40 40 39 38 37 37 37 36 36 36 35 34 34 32
56 57 57 57 56 55 55 52 50 50 50 47 44 45 44 42 40 41 40 39 39 40 41 41 42 42 41 40 40 38 37 37 35 34 34 33 32 30
63 63 62 61 60 59 59 57 52 54 55 53 51 49 48 47 45 44 43 42 42 42 44 44 44 44 44 44 43 43 41 39 38 36 34 34 33 30
64 63 63 63 62 61 59 65 62 59 61 59 58 57 53 51 50 49 49 50 50 48 49 49 48 47 47 47 46 45 45 44 42 41 39 38 36 34
64 65 65 65 66 67 67 69 68 64 64 64 61 60 59 57 56 56 56 57 56 56 54 52 51 52 52 51 50 48 47 46 46 46 45 43 41 40
68 68 67 68 69 68 68 69 68 68 67 67 65 63 61 60 62 63 62 63 63 62 60 57 56 54 54 56 53 52 52 49 48 48 47 45 45 45
72 71 71 72 71 70 69 68 68 68 67 68 67 64 64 64 63 63 62 65 67 67 66 64 64 62 59 57 56 55 53 52 52 52 51 48 47 46
75 75 75 75 73 70 68 67 68 68 68 68 67 64 63 63 65 66 65 67 70 71 69 69 67 64 62 61 61 61 60 57 54 52 52 52 50 49
76 76 77 76 74 71 68 66 66 68 69 69 68 69 68 68 69 71 74 77 77 78 74 67 63 63 66 66 66 65 64 63 62 59 54 54 54 52
75 76 74 73 72 70 70 69 66 67 71 67 68 69 70 71 73 72 71 69 68 66 64 63 62 62 65 68 71 72 70 68 66 63 59 58 57 56
72 73 73 73 70 70 69 69 68 67 71 64 63 67 63 63 67 68 65 63 61 58 59 60 60 62 65 69 73 74 73 73 72 69 64 61 58 59
69 70 70 68 68 67 64 63 60 59 59 61 63 66 66 63 60 57 57 56 53 52 52 55 59 62 63 64 68 72 74 74 74 73 71 66 62 59
65 65 65 64 61 63 61 61 60 60 61 58 61 59 56 54 54 54 53 52 51 53 56 57 59 60 62 64 66 68 71 70 69 68 68 67 65 61
56 57 57 57 58 58 56 53 54 54 56 56 53 53 54 52 49 48 48 49 49 49 51 53 55 57 58 58 59 60 59 60 59 57 57 56 57 59
53 53 54 56 56 56 56 57 57 56 51 50 53 51 49 45 43 45 46 49 50 50 54 57 55 53 51 48 48 48 49 49 50 50 50 51 50 51
50 51 52 53 51 51 50 50 48 49 47 45 42 42 44 45 46 47 47 50 51 52 48 44 43 43 42 42 43 44 43 43 42 42 42 43 44 44
51 49 50 47 46 45 45 45 47 43 42 43 46 41 39 38 41 44 46 44 42 41 40 40 39 40 39 38 38 37 36 36 36 37 36 37 40 40
46 47 47 47 43 38 39 41 41 46 47 42 37 35 36 41 42 41 40 39 38 38 38 36 34 33 33 33 35 34 34 33 33 33 33 35 35 36
45 44 44 43 39 39 41 45 51 49 40 39 38 36 38 40 39 38 38 37 36 34 32 30 29 28 28 29 30 34 35 34 34 34 33 32 33 34
45 45 44 44 45 45 44 53 45 42 41 40 39 38 40 39 38 37 36 35 32 29 28 28 27 27 27 27 27 29 31 33 32 34 35 34 30 33
45 45 45 46 48 46 50 48 47 47 44 44 42 40 40 39 38 37 36 33 30 29 29 28 27 27 28 30 31 32 33 33 32 32 35 36 32 31
44 44 43 46 47 46 46 45 45 44 49 48 45 42 41 40 39 39 37 35 33 30 30 30 29 28 28 29 31 34 36 37 38 35 33 35 35 31
Wind_Direction
272 273 274 276 275 278 281 283 284 285 285 283 281 281 281 279 278 277 276 274 272 270 270 270 271 270 270 269 267 267 266 267 267 267 266 267 267 267
273 273 273 273 274 276 278 280 280 280 280 280 279 278 278 279 279 277 277 276 275 273 271 270 270 271 270 270 268 267 266 265 264 265 266 266 265 266
272 272 273 274 275 275 276 276 276 276 275 274 276 275 276 278 278 277 275 275 275 275 275 273 272 271 270 270 269 267 267 266 264 262 261 261 262 262
272 272 272 272 272 272 273 272 269 269 270 270 271 274 273 276 276 276 276 275 275 275 274 274 274 274 273 271 269 268 266 266 264 261 259 258 257 259
270 270 270 269 268 266 266 267 268 264 265 267 270 272 271 272 273 274 274 275 277 278 277 276 275 274 273 273 272 269 268 266 265 263 259 258 258 258
269 269 268 268 267 268 265 267 268 266 265 267 267 270 271 270 270 274 275 275 276 276 278 278 276 277 276 272 273 272 269 268 265 263 262 260 259 260
269 269 268 267 268 268 267 267 267 267 265 267 268 267 268 271 269 269 271 274 278 280 279 278 274 276 278 277 274 272 270 269 267 265 262 261 260 260
270 269 268 268 268 268 268 267 267 267 266 266 266 266 267 268 265 267 269 271 276 279 279 282 282 282 280 278 275 274 271 268 266 267 265 263 260 259
266 266 266 266 266 266 265 265 265 265 265 266 267 266 266 263 265 268 268 271 275 277 279 281 283 281 280 279 277 275 273 270 268 266 265 263 260 257
263 262 263 264 265 264 264 263 262 262 264 264 264 262 261 262 263 265 267 270 273 276 278 279 278 279 280 281 280 277 275 273 269 266 265 264 262 259
261 261 261 261 261 260 259 259 260 260 265 265 262 264 265 266 267 269 269 270 271 272 274 275 275 276 278 280 281 280 277 275 272 271 266 264 261 260
258 259 260 261 259 259 260 260 259 255 260 263 261 263 265 265 268 269 269 270 270 270 269 272 273 275 277 278 279 279 279 278 275 273 270 268 263 258
257 258 260 260 260 259 259 258 258 257 257 256 257 260 266 267 267 265 266 269 268 271 269 270 272 274 274 275 277 277 278 278 277 275 272 268 265 261
257 258 258 258 255 255 256 257 258 256 258 258 258 258 259 261 262 264 264 265 266 268 270 272 274 274 274 274 274 275 276 276 276 275 273 270 266 262
255 254 255 255 253 254 255 254 252 250 253 258 255 258 259 258 259 261 264 267 269 271 275 275 276 277 276 275 275 276 276 275 273 271 268 265 261 259
251 251 253 253 252 251 249 247 250 254 256 254 255 254 254 256 260 264 267 269 271 274 276 278 279 279 279 278 278 277 276 276 276 273 270 263 255 248
245 248 251 252 250 249 248 247 245 245 251 248 248 251 253 257 262 265 274 275 274 274 274 273 273 274 275 276 275 275 275 275 274 271 269 267 259 250
250 250 248 245 244 244 241 240 237 241 243 246 247 256 266 269 277 274 271 271 269 267 266 267 270 273 274 273 274 275 273 272 273 272 268 264 262 254
241 241 239 235 230 232 233 231 240 243 241 249 259 261 268 274 269 266 267 265 264 265 267 270 271 274 277 279 281 278 277 276 274 272 268 264 260 256
240 236 234 230 235 240 242 246 242 241 250 253 255 259 265 262 260 262 261 260 262 262 264 267 270 274 278 282 286 287 283 280 277 274 270 266 260 255
239 237 236 237 239 242 243 245 244 243 243 246 248 252 254 253 254 256 255 253 254 256 261 265 271 275 281 287 293 295 295 290 278 272 267 265 262 258
240 239 238 236 237 238 239 244 240 241 243 243 243 245 248 249 249 249 248 248 249 253 260 267 276 283 290 295 297 298 297 296 293 280 271 262 257 253
241 243 243 242 238 237 236 243 237 240 244 240 240 241 244 243 242 241 241 248 253 255 260 265 270 277 285 292 295 296 294 295 296 296 290 275 261 247